Location: Assche-ter-Heiden
(50.9174°N, 4.1574°E)
Time: 21:50:16
(UTC+00:00)

Cosmos 2360 Rocket - Pass Details

Date: 20 January 2020
Orbit: 834 x 844 km, 71.0° (Epoch: 25 February)

Event Time Altitude Azimuth Distance (km) Brightness Sun altitude
Rises 06:25:15 0° 180° (S) 3,390 5.6 -10.9°
Reaches altitude 10° 06:27:51 10° 173° (S) 2,459 5.0 -10.5°
Maximum altitude 06:32:58 37° 107° (ESE) 1,297 4.0 -9.7°
Drops below altitude 10° 06:38:07 10° 42° (NE) 2,474 4.9 -9.0°
Sets 06:40:43 0° 35° (NE) 3,413 5.5 -8.6°
